Weather History for Santa Ynez, CA

Change the Weather History Date:

Tuesday, November 6, 2012

  Actual Average (KSBA) Record (KSBA)
Temperature  
Mean Temperature 70 °F 58 °F  
Max Temperature 89 °F 70 °F 88 °F (2006)
Min Temperature 50 °F 47 °F 37 °F (1973)
Degree Days  
Heating Degree Days 0 7  
Month to date heating degree days 38  
Since 1 July heating degree days 255  
Cooling Degree Days 4 0  
Month to date cooling degree days 0  
Year to date cooling degree days 186  
Growing Degree Days 20 (Base 50)    
Moisture  
Dew Point 34 °F    
Average Humidity 34    
Maximum Humidity 58    
Minimum Humidity 13    
Precipitation  
Precipitation 0.00 in 0.05 in 0.90 in (1969)
Month to date precipitation 0.29  
Year to date precipitation 13.56  
Since 1 July precipitation 1.51  
Sea Level Pressure  
Sea Level Pressure 30.05 in    
Wind  
Wind Speed 3 mph (West)    
Max Wind Speed 12 mph    
Max Gust Speed -    
Visibility 10 miles    
Events      
T = Trace of Precipitation, MM = Missing Value Source: NWS Daily Summary

Daily Weather History Graph

Daily Weather History Graph

Search for Another Location

Airport:

Trip Planner

Search our weather history database for the weather conditions in past years. The results will help you decide how hot, cold, wet, or windy it might be!

Date:

Astronomy

Nov. 06, 2012 Rise Set
Actual Time 6:25 AM PST 5:01 PM PST
Civil Twilight 5:59 AM PST 5:27 PM PST
Nautical Twilight 5:29 AM PST 5:57 PM PST
Astronomical Twilight 4:59 AM PST 6:27 PM PST
Moon 11:42 PM PST (11/6) 12:23 PM PST (11/6)
Length of Visible Light 11h 28m
Length of Day
10h 35m
Waning Gibbous, 52% of the Moon is Illuminated
Nov 6
Waning Gibbous
Nov 6
Last Quarter
Nov 13
New
Nov 20
First Quarter
Nov 28
Full

Hourly Weather History & Observations

Time (PST) Temp. Dew Point Humidity Pressure Visibility Wind Dir Wind Speed Gust Speed Precip Events Conditions
12:15 AM 53.6 °F 30.2 °F 41% 30.07 in 10.0 mi ENE 3.5 mph - N/A   Clear
12:35 AM 53.6 °F 30.2 °F 41% 30.07 in 10.0 mi Calm Calm - N/A   Clear
12:55 AM 53.6 °F 30.2 °F 41% 30.06 in 10.0 mi Calm Calm - N/A   Clear
1:15 AM 55.4 °F 28.4 °F 36% 30.06 in 10.0 mi East 4.6 mph - N/A   Clear
1:35 AM 51.8 °F 32.0 °F 47% 30.06 in 10.0 mi Calm Calm - N/A   Clear
1:55 AM 53.6 °F 32.0 °F 44% 30.05 in 10.0 mi Calm Calm - N/A   Clear
2:15 AM 53.6 °F 30.2 °F 41% 30.05 in 10.0 mi Calm Calm - N/A   Clear
2:35 AM 51.8 °F 32.0 °F 47% 30.05 in 10.0 mi Calm Calm - N/A   Clear
2:55 AM 53.6 °F 30.2 °F 41% 30.05 in 10.0 mi East 3.5 mph - N/A   Clear
3:15 AM 53.6 °F 30.2 °F 41% 30.04 in 10.0 mi East 3.5 mph - N/A   Clear
3:35 AM 51.8 °F 30.2 °F 44% 30.05 in 10.0 mi Calm Calm - N/A   Clear
3:55 AM 51.8 °F 30.2 °F 44% 30.05 in 10.0 mi Calm Calm - N/A   Clear
4:15 AM 51.8 °F 32.0 °F 47% 30.05 in 10.0 mi Calm Calm - N/A   Clear
4:35 AM 50.0 °F 32.0 °F 50% 30.05 in 10.0 mi Calm Calm - N/A   Clear
4:55 AM 51.8 °F 32.0 °F 47% 30.05 in 10.0 mi Calm Calm - N/A   Clear
5:15 AM 51.8 °F 32.0 °F 47% 30.05 in 10.0 mi Calm Calm - N/A   Clear
5:35 AM 50.0 °F 32.0 °F 50% 30.05 in 10.0 mi Calm Calm - N/A   Clear
5:55 AM 51.8 °F 30.2 °F 44% 30.06 in 10.0 mi Calm Calm - N/A   Clear
6:15 AM 50.0 °F 30.2 °F 47% 30.06 in 10.0 mi East 3.5 mph - N/A   Clear
6:35 AM 50.0 °F 30.2 °F 47% 30.06 in 10.0 mi Calm Calm - N/A   Clear
6:55 AM 51.8 °F 32.0 °F 47% 30.07 in 10.0 mi Calm Calm - N/A   Clear
7:15 AM 53.6 °F 32.0 °F 44% 30.07 in 10.0 mi Calm Calm - N/A   Clear
7:35 AM 59.0 °F 32.0 °F 36% 30.08 in 10.0 mi Calm Calm - N/A   Clear
7:55 AM 60.8 °F 32.0 °F 34% 30.08 in 10.0 mi Calm Calm - N/A   Clear
8:15 AM 64.4 °F 32.0 °F 30% 30.08 in 10.0 mi ESE 3.5 mph - N/A   Clear
8:35 AM 64.4 °F 32.0 °F 30% 30.08 in 10.0 mi Calm Calm - N/A   Clear
8:55 AM 68.0 °F 32.0 °F 26% 30.08 in 10.0 mi Calm Calm - N/A   Clear
9:15 AM 69.8 °F 32.0 °F 25% 30.08 in 10.0 mi SW 3.5 mph - N/A   Clear
9:35 AM 73.4 °F 32.0 °F 22% 30.08 in 10.0 mi WSW 3.5 mph - N/A   Clear
9:55 AM 75.2 °F 32.0 °F 21% 30.07 in 10.0 mi Calm Calm - N/A   Clear
10:15 AM 78.8 °F 32.0 °F 18% 30.07 in 10.0 mi Calm Calm - N/A   Clear
10:35 AM 82.4 °F 32.0 °F 16% 30.06 in 10.0 mi WNW 4.6 mph - N/A   Clear
10:55 AM 86.0 °F 32.0 °F 14% 30.06 in 10.0 mi West 6.9 mph - N/A   Clear
11:15 AM 87.8 °F 32.0 °F 14% 30.05 in 10.0 mi West 6.9 mph - N/A   Clear
11:35 AM 87.8 °F 32.0 °F 14% 30.04 in 10.0 mi West 6.9 mph - N/A   Clear
11:55 AM 87.8 °F 32.0 °F 14% 30.03 in 10.0 mi West 8.1 mph - N/A   Clear
12:15 PM 89.6 °F 32.0 °F 13% 30.02 in 10.0 mi West 8.1 mph - N/A   Clear
12:35 PM 89.6 °F 32.0 °F 13% 30.01 in 10.0 mi West 8.1 mph - N/A   Clear
12:55 PM 89.6 °F 33.8 °F 14% 30.01 in 10.0 mi WSW 10.4 mph - N/A   Clear
1:15 PM 89.6 °F 32.0 °F 13% 30.00 in 10.0 mi WSW 11.5 mph - N/A   Clear
1:35 PM 89.6 °F 33.8 °F 14% 30.00 in 10.0 mi West 11.5 mph - N/A   Clear
1:55 PM 89.6 °F 33.8 °F 14% 30.00 in 10.0 mi WSW 9.2 mph - N/A   Clear
2:15 PM 89.6 °F 33.8 °F 14% 30.00 in 10.0 mi West 9.2 mph - N/A   Clear
2:35 PM 87.8 °F 33.8 °F 15% 30.00 in 10.0 mi West 11.5 mph - N/A   Clear
2:55 PM 86.0 °F 33.8 °F 15% 30.01 in 10.0 mi West 10.4 mph - N/A   Clear
3:15 PM 86.0 °F 33.8 °F 15% 30.01 in 10.0 mi WSW 10.4 mph - N/A   Clear
3:35 PM 84.2 °F 32.0 °F 15% 30.01 in 10.0 mi West 9.2 mph - N/A   Clear
3:55 PM 82.4 °F 33.8 °F 17% 30.01 in 10.0 mi WSW 10.4 mph - N/A   Clear
4:15 PM 80.6 °F 33.8 °F 18% 30.01 in 10.0 mi West 9.2 mph - N/A   Clear
4:35 PM 78.8 °F 35.6 °F 21% 30.01 in 10.0 mi West 6.9 mph - N/A   Clear
4:55 PM 73.4 °F 35.6 °F 25% 30.01 in 10.0 mi West 5.8 mph - N/A   Clear
5:15 PM 73.4 °F 33.8 °F 23% 30.02 in 10.0 mi West 6.9 mph - N/A   Clear
5:35 PM 71.6 °F 35.6 °F 27% 30.02 in 10.0 mi WNW 6.9 mph - N/A   Clear
5:55 PM 68.0 °F 37.4 °F 33% 30.03 in 10.0 mi West 5.8 mph - N/A   Clear
6:15 PM 68.0 °F 37.4 °F 33% 30.03 in 10.0 mi West 5.8 mph - N/A   Clear
6:35 PM 66.2 °F 37.4 °F 35% 30.03 in 10.0 mi West 3.5 mph - N/A   Clear
6:55 PM 64.4 °F 41.0 °F 42% 30.04 in 10.0 mi Calm Calm - N/A   Clear
7:15 PM 64.4 °F 39.2 °F 40% 30.05 in 10.0 mi Calm Calm - N/A   Clear
7:35 PM 62.6 °F 39.2 °F 42% 30.05 in 10.0 mi Calm Calm - N/A   Clear
7:55 PM 62.6 °F 37.4 °F 39% 30.05 in 10.0 mi Calm Calm - N/A   Clear
8:15 PM 60.8 °F 39.2 °F 45% 30.06 in 10.0 mi Calm Calm - N/A   Clear
8:35 PM 59.0 °F 37.4 °F 45% 30.06 in 10.0 mi East 3.5 mph - N/A   Clear
8:55 PM 59.0 °F 37.4 °F 45% 30.06 in 10.0 mi ENE 4.6 mph - N/A   Clear
9:15 PM 55.4 °F 35.6 °F 47% 30.06 in 10.0 mi ENE 3.5 mph - N/A   Clear
9:35 PM 55.4 °F 35.6 °F 47% 30.07 in 10.0 mi ENE 3.5 mph - N/A   Clear
9:55 PM 55.4 °F 37.4 °F 51% 30.07 in 10.0 mi ENE 4.6 mph - N/A   Clear
10:15 PM 53.6 °F 37.4 °F 54% 30.07 in 10.0 mi Calm Calm - N/A   Clear
10:35 PM 53.6 °F 39.2 °F 58% 30.07 in 10.0 mi Calm Calm - N/A   Clear
10:55 PM 53.6 °F 37.4 °F 54% 30.06 in 10.0 mi Calm Calm - N/A   Clear
11:15 PM 53.6 °F 37.4 °F 54% 30.06 in 10.0 mi Calm Calm - N/A   Clear
11:35 PM 53.6 °F 37.4 °F 54% 30.07 in 10.0 mi Calm Calm - N/A   Clear
11:55 PM 51.8 °F 37.4 °F 58% 30.07 in 10.0 mi NNE 3.5 mph - N/A   Clear